This is the latest recevied weather packets stored in our database for station/object KB0Y. If no packets are shown the sender has not sent any weather packets the latest 1 day(s).
| Time | Temp. | Humidity | Pressure | Rain* | Wind** | Luminosity | Snow |
|---|---|---|---|---|---|---|---|
| 1778040535 | 20° C | 92% | 1019.6 hPa | 0 mm | 1.34 m/s, 194° | 0 W/m² | - |
| 1778040233 | 20° C | 91% | 1019.6 hPa | 0 mm | 0.89 m/s, 192° | 0 W/m² | - |
| 1778039928 | 20° C | 90% | 1020 hPa | 0 mm | 1.34 m/s, 192° | 0 W/m² | - |
| 1778039626 | 20° C | 89% | 1020 hPa | 0 mm | 0.45 m/s, 194° | 0 W/m² | - |
| 1778039323 | 20° C | 88% | 1020 hPa | 0 mm | 0.45 m/s, 194° | 0 W/m² | - |
| 1778039020 | 20° C | 88% | 1020 hPa | 0 mm | 1.34 m/s, 194° | 0 W/m² | - |
| 1778038717 | 20° C | 87% | 1020.3 hPa | 0 mm | 1.34 m/s, 194° | 0 W/m² | - |
| 1778038414 | 20° C | 87% | 1020 hPa | 0 mm | 0.45 m/s, 196° | 0 W/m² | - |
| 1778038111 | 20.56° C | 86% | 1020 hPa | 0 mm | 0.89 m/s, 197° | 0 W/m² | - |
| 1778037808 | 20.56° C | 86% | 1020 hPa | 0 mm | 0 m/s | 0 W/m² | - |
| 1778037505 | 20.56° C | 86% | 1020 hPa | 0 mm | 0.45 m/s, 196° | 0 W/m² | - |
| 1778037202 | 20.56° C | 86% | 1019.6 hPa | 0 mm | 0.45 m/s, 195° | 0 W/m² | - |
| 1778036900 | 20.56° C | 85% | 1020 hPa | 0 mm | 0.45 m/s, 195° | 0 W/m² | - |
| 1778036598 | 20.56° C | 84% | 1020 hPa | 0 mm | 1.34 m/s, 195° | 0 W/m² | - |
| 1778036294 | 20.56° C | 84% | 1020 hPa | 0 mm | 0 m/s | 0 W/m² | - |
| 1778035990 | 21.11° C | 84% | 1020 hPa | 0 mm | 0.89 m/s, 196° | 0 W/m² | - |
| 1778035688 | 21.11° C | 82% | 1019.6 hPa | 0 mm | 0.45 m/s, 198° | 0 W/m² | - |
| 1778035384 | 21.11° C | 82% | 1020 hPa | 0 mm | 0 m/s | 0 W/m² | - |
| 1778035080 | 21.11° C | 81% | 1019.6 hPa | 0 mm | 1.34 m/s, 198° | 0 W/m² | - |
| 1778034778 | 21.11° C | 82% | 1020 hPa | 0 mm | 0 m/s | 0 W/m² | - |
| 1778034474 | 21.11° C | 82% | 1020 hPa | 0 mm | 0.45 m/s, 199° | 0 W/m² | - |
| 1778034172 | 21.11° C | 81% | 1019.6 hPa | 0 mm | 0.45 m/s, 198° | 0 W/m² | - |
| 1778033870 | 21.11° C | 81% | 1019.6 hPa | 0 mm | 0 m/s | 0 W/m² | - |
| 1778033567 | 21.67° C | 80% | 1019.3 hPa | 0 mm | 1.34 m/s, 198° | 0 W/m² | - |
| 1778033263 | 21.67° C | 80% | 1019.3 hPa | 0 mm | 0 m/s | 0 W/m² | - |
* Rain latest hour (hover to see other rain measurements)
** Current wind speed in m/s (hover to see current wind gust speed)